Terminal Aerodrome Forecast
Issued by NWS Bismarck, ND

Home | Current Version | Previous Version | Text Only | Print | Product List | Glossary Off
Versions: 1 2 3 4 5 6 7 8 9 10 11 12 13 14 15 16 17 18 19

000
FTUS43 KBIS 252219 AAA
TAFBIS
TAF AMD
KBIS 252219Z 2522/2618 02013G18KT P6SM OVC022
     FM260200 02014KT P6SM OVC018
     FM261700 36011KT P6SM BKN024=

USA.gov is the U.S. government's official web portal to all federal, state and local government web resources and services.